WXBOT messages


fromtotime message
WXBOT KC1RAY-1 05/05 02:45:46z Send another Rehoboth MA. Wind Advisory, Tonight,Mostly Clear Low 50
KC1RAY-1 WXBOT 05/05 02:45:39z Reply Rehoboth,MA{074
WXBOT KB9MTD-7 05/05 02:42:20z Send another lated Showers 20% Low 47
WXBOT KB9MTD-7 05/05 02:42:15z Send another Dixon IL. Hazardous Weather Outlook, Tonight,Mostly Cloudy then Iso
RGSTRY WXBOT 05/05 02:37:45z Reply ?{823
WXBOT KF8EZY-7 05/05 02:23:33z Send another Barrackville WV. Tuesday,Mostly Sunny High 78
WXBOT KE0WAW-7 05/05 02:09:30z Send another gh 59
WXBOT KE0WAW-7 05/05 02:09:25z Send another Weston MO. Hazardous Weather Outlook, Tuesday,Chance Showers 50% Hi
WXBOT KK7PZE-7 05/05 02:06:01z Send another 5 Miles W Rio Verde AZ. Tuesday,Chance Showers 50% High 73
KK7PZE-7 WXBOT 05/05 02:05:53z Reply Tomorrow{5C13D
WXBOT KQ4NNJ-9 05/05 02:04:19z Send another Scottsville KY. Tonight,Mostly Clear Low 57
KQ4NNJ-9 WXBOT 05/05 02:04:12z Reply 4216456
KQ4NNJ-9 WXBOT 05/05 02:04:12z Reply 42164{56
K1MRE-10 WXBOT 05/05 02:03:33z Reply 06470
WXBOT K1MRE-10 05/05 02:03:25z Send another Newtown CT. Special Weather Statement, Tonight,Mostly Clear Low 51
K1MRE-10 WXBOT 05/05 02:03:22z Reply 06470002
K1MRE-10 WXBOT 05/05 02:03:18z Reply 06470{002
WXBOT KE0WAW-7 05/05 01:56:46z Send another s 80% High 71
WXBOT KE0WAW-7 05/05 01:56:41z Send another 2 Miles WNW Westport KY. Tuesday,Slight Chance T-storms then Shower
KE0WAW-7 WXBOT 05/05 01:56:33z Reply Forecast for Minneapolis tomorrow{2
WXBOT K9CMI 05/05 01:51:59z Send another Likely 60% Low 53
WXBOT K9CMI 05/05 01:51:54z Send another 2 Miles NW Champaign IL. Hazardous Weather Outlook, Tonight,Showers
K9CMI WXBOT 05/05 01:51:48z Reply 61822{1113
WXBOT K1MRE-10 05/05 01:45:47z Send another Stevenson CT. Special Weather Statement, Tonight,Mostly Clear Low 5
K1MRE-10 WXBOT 05/05 01:45:40z Reply 06468{001
RGSTRY WXBOT 05/05 01:37:45z Reply ?{748
WXBOT WR1U 05/05 01:12:01z Send another dy Low 49
WR1U WXBOT 05/05 01:11:47z Reply weather{25
WXBOT WR1U 05/05 01:08:06z Send another Pease Air Force Base / Portsmouth NH. Tonight,Partly Cloudy Low 50
WR1U WXBOT 05/05 01:07:59z Reply 03801{24
WXBOT KE8YIR 05/05 01:04:27z Send another Hudson OH. Tonight,Showers Likely 60% Low 57
KE8YIR WXBOT 05/05 01:04:20z Reply 44236{1392
WXBOT KF8BED-1 05/05 00:43:06z Send another 2 Miles E Brooklyn OH. Tonight,Showers Likely 70% Low 59
KF8BED-1 WXBOT 05/05 00:43:01z Reply Near{5DAB3
RGSTRY WXBOT 05/05 00:37:45z Reply ?{673
K4KHO-9 wxbot 05/05 00:00:46z Reply k4sdm{29
K4KHO-9 wxbot 05/05 00:00:30z Reply k4sdn{28
K4KHO-9 wxbot 05/04 23:58:54z Reply 30096{27
WXBOT K9BDH-2 05/04 23:57:17z Send another ,Chance T-storms 50% Low 50
WXBOT K9BDH-2 05/04 23:57:12z Send another 2 Miles ENE Germantown Hills IL. Hazardous Weather Outlook, Tonight
K9BDH-2 WXBOT 05/04 23:57:06z Reply 61548{26
WXBOT KO6LGI 05/04 23:47:43z Send another rms then Chance Showers 30% Low 60
WXBOT KO6LGI 05/04 23:47:38z Send another Riverlea OH. Hazardous Weather Outlook, Tonight,Slight Chance T-sto
KO6LGI WXBOT 05/04 23:47:30z Reply 43085{4625
WXBOT KO6LGI 05/04 23:46:27z Send another Unable to find location for KO6LGI
KO6LGI WXBOT 05/04 23:46:19z Reply ohio{4624
RGSTRY WXBOT 05/04 23:37:45z Reply ?{598
WXBOT KE8GIM-1 05/04 23:27:16z Send another overcast and breezy
WXBOT KE8GIM-1 05/04 23:27:11z Send another Currently at South Bend International Airport, Temp:72 wind:210@22,
KE8GIM-1 WXBOT 05/04 23:27:04z Reply Now{485
WXBOT N4WDH-7 05/04 23:26:12z Send another 6 Miles WSW Zephyrhills West FL. Tonight,Partly Cloudy Low 63
N4WDH-7 WXBOT 05/04 23:26:05z Reply 33543{1
WXBOT KM4ACK-3 05/04 22:59:06z Send another 5 Miles E Murfreesboro TN. Tonight,Mostly Clear Low 56
KM4ACK-3 WXBOT 05/04 22:58:58z Reply today{m0001
WXBOT W4RSW 05/04 22:52:49z Send another Heiskell TN. Tonight,Mostly Clear Low 53
W4RSW WXBOT 05/04 22:52:42z Reply 377545687
W4RSW WXBOT 05/04 22:52:41z Reply 37754{5687
WXBOT KJ5MJQ-7 05/04 22:40:07z Send another tation is 30%.
WXBOT KJ5MJQ-7 05/04 22:40:02z Send another wind 10 to 15 mph, with gusts as high as 30 mph. Chance of precipi
WXBOT KJ5MJQ-7 05/04 22:39:56z Send another of showers after 4am. Mostly cloudy, with a low around 61. South
WXBOT KJ5MJQ-7 05/04 22:39:52z Send another showers and thunderstorms between 7pm and 4am, then a slight chance
WXBOT KJ5MJQ-7 05/04 22:39:47z Send another 3 Miles E Tulsa OK. Hazardous Weather Outlook, Tonight,A chance of
KJ5MJQ-7 WXBOT 05/04 22:39:40z Reply 74129 FULL{004
RGSTRY WXBOT 05/04 22:37:45z Reply ?{523
N5ZPI WXBOT 05/04 22:33:42z Reply 76014{105
WXBOT WA1GOV-1 05/04 22:30:12z Send another w 50
WXBOT WA1GOV-1 05/04 22:30:08z Send another East Taunton MA. Special Weather Statement, Tonight,Mostly Clear Lo
WA1GOV-1 WXBOT 05/04 22:30:04z Reply WA1GOV-1
WXBOT N5ZPI 05/04 22:27:39z Send another ds Low 71
WXBOT N5ZPI 05/04 22:27:34z Send another 2 Miles NNE Arlington Municipal Airport TX. Tonight,Decreasing Clou
N5ZPI WXBOT 05/04 22:27:27z Reply 76014{2097
WXBOT KF0QIL-9 05/04 22:02:20z Send another ed T-storms 20% High 81
WXBOT KF0QIL-9 05/04 22:02:15z Send another New Bloomfield MO. Hazardous Weather Outlook, This Afternoon,Isolat
KF0QIL-9 WXBOT 05/04 22:02:05z Reply today{17
WXBOT W2DMB-7 05/04 21:54:26z Send another Mastic Beach NY. Tonight,Mostly Clear Low 51
W2DMB-7 WXBOT 05/04 21:54:19z Reply 11951{1
RGSTRY WXBOT 05/04 21:37:45z Reply ?{448
WXBOT VE2ORU-7 05/04 21:31:49z Send another .
WXBOT VE2ORU-7 05/04 21:31:44z Send another GW4954 66,wind:11@4 g6,1004.7mbar,rh:47%,rain:1h:0.00in.,24h:0.10in
VE2ORU-7 WXBOT 05/04 21:31:37z Reply GW4954{1
WXBOT K7TEJ-9 05/04 21:29:42z Send another FW7674 75,wind:169@6 g6,1013.0mbar,rh:37%,rain:none
K7TEJ-9 WXBOT 05/04 21:29:34z Reply CWOP {21
WXBOT KE8VIK 05/04 21:28:02z Send another Niles MI. This Afternoon,Slight Chance T-storms 20% High 77
KE8VIK WXBOT 05/04 21:27:55z Reply Niles, MI {1
WXBOT KC1RAY-1 05/04 21:20:01z Send another Tonight,Mostly Clear and Breezy then Mostly Clear Low 52
WXBOT KC1RAY-1 05/04 21:19:56z Send another Boston, Logan International Airport MA. Special Weather Statement,
KC1RAY-1 WXBOT 05/04 21:19:49z Reply Boston,MA{070
WXBOT KO6LGI 05/04 21:00:07z Send another Forecast available only at United States locations
WXBOT KO6LGI 05/04 21:00:02z Send another what= full,metar,cwop,current or whois
WXBOT KO6LGI 05/04 20:59:57z Send another when= tonight,tomorrow, or day of week i.e. Sunday
WXBOT KO6LGI 05/04 20:59:52z Send another where= City,ST callsign,APRS obj,lat/lon,grid,CWOP,airport or zip
WXBOT KO6LGI 05/04 20:59:47z Send another Send an APRS message to WXBOT with 'where' 'when' 'what'
KO6LGI WXBOT 05/04 20:59:42z Reply ?{4621
WXBOT W4PWT-7 05/04 20:41:50z Send another 4 Miles SE Deep Run NC. Tonight,Mostly Clear Low 54
W4PWT-7 WXBOT 05/04 20:41:42z Reply Tonight{1
RGSTRY WXBOT 05/04 20:37:45z Reply ?{373
WXBOT K4WPA-4 05/04 20:32:23z Send another :200@14,fair
WXBOT K4WPA-4 05/04 20:32:18z Send another Currently at New Bern, Craven County Regional Airport, Temp:74 wind
K4WPA-4 WXBOT 05/04 20:32:10z Reply Today{2198B
K4WPA-4 WXBOT 05/04 20:32:10z Reply Now{BAEC6